Regional Weather Roundup
Issued by NWS Cleveland, OH

Home | Current Version | Previous Version | Graphics & Text | Print | Product List | Glossary On
Versions: 1 2 3 4 5 6 7 8 9 10 11 12 13 14 15 16 17 18 19 20 21 22 23 24 25 26 27 28 29 30 31 32 33 34 35 36 37 38 39 40 41 42 43 44 45 46 47 48 49 50
703
ASUS41 KCLE 240512
RWRCLE
OHIO REGIONAL WEATHER ROUNDUP
NATIONAL WEATHER SERVICE WILMINGTON, OH
100 AM EDT SUN JUL 24 2016

NOTE: "FAIR" INDICATES FEW OR NO CLOUDS BELOW 12,000 FEET WITH NO
SIGNIFICANT WEATHER AND/OR OBSTRUCTIONS TO VISIBILITY.

OHZ001>008-015>018-024>027-034-035-043-044-240600-
   NORTHWEST OHIO

CITY           SKY/WX    TMP DP  RH WIND       PRES   REMARKS
DEFIANCE       FAIR      80  69  69 S5        29.96F
FINDLAY        FAIR      78  70  76 CALM      29.98F
TOLEDO EXPRESS FAIR      75  73  93 SE5       29.96F
TOLEDO EXEC    FAIR      79  69  71 CALM      29.98S
LIMA           FAIR      76  73  91 CALM      30.00F
$$

OHZ009>014-019>023-028>033-038-089-240600-
   NORTHEAST OHIO

CITY           SKY/WX    TMP DP  RH WIND       PRES   REMARKS
CLE-HOPKINS    FAIR      75  62  64 SE6       30.03S
CLE-LAKEFRONT  FAIR      80  60  50 CALM      29.99F
CUY CO. ARPT   NOT AVBL
LORAIN-ELYRIA  FAIR      71  64  78 CALM      30.01S
ASHTABULA      FAIR      65  64  97 E3        30.03F
AKRON-CANTON   MOCLDY    76  61  59 NE3       30.03S
WOOSTER        FAIR      71  66  84 CALM      30.03S
MANSFIELD      FAIR      76  67  73 SE3       30.03S
YOUNGSTOWN     FAIR      65  60  84 E5        30.03S
$$

OHZ042-051>053-060>062-070>072-077>081-240600-
  SOUTHWEST OHIO

CITY           SKY/WX    TMP DP  RH WIND       PRES   REMARKS
CINC-COVINGTON FAIR      76  73  91 CALM      30.00F
CINC-LUNKEN    FAIR      75  74  96 CALM      29.99F
HAMILTON       FAIR      74  71  91 CALM      30.00F
DAYTON         MOCLDY    78  72  81 CALM      30.01F
WRIGHT-PAT AFB FAIR      78  74  89 CALM      29.99F
DAYTON GENERAL FAIR      77  70  79 CALM      30.00F
WILMINGTON     FAIR      76  74  93 SE6       30.01F
$$

OHZ036-037-039>041-045>050-054>059-063>069-073>076-082>088-240600-
  CENTRAL AND SOUTHEAST OHIO

CITY           SKY/WX    TMP DP  RH WIND       PRES   REMARKS
COLUMBUS       CLOUDY    78  73  84 CALM      29.99F
OSU AIRPORT    FAIR      79  72  79 CALM      30.00F
BOLTON FIELD   FAIR      74  73  96 CALM      30.01S
RICKENBACK AFB FAIR      75  74  95 CALM      30.00S
NEWARK         FAIR      73  72  96 CALM      30.00S FOG
MARION         FAIR      76  71  85 SE6       30.00F
LANCASTER      FAIR      73  72  96 CALM      30.01S
ZANESVILLE     FAIR      77  72  84 CALM      30.01S
NEW PHILLY     FAIR      75  70  84 CALM      30.02S
$$




USA.gov is the U.S. government's official web portal to all federal, state and local government web resources and services.